Regional Weather Roundup
Issued by NWS

Home | Current Version | Previous Version | Text Only | Print | Product List | Glossary On
Versions: 1 2 3 4 5 6 7 8 9 10 11 12 13 14 15 16 17 18 19 20 21 22 23 24 25 26 27 28 29 30 31 32 33 34 35 36 37 38 39 40 41 42 43 44 45 46 47 48 49 50
041
ASUS43 KDTX 220601
RWRMI
MICHIGAN HOURLY REGIONAL WEATHER ROUNDUP
NATIONAL WEATHER SERVICE DETROIT/PONTIAC MI
200 AM EDT TUE AUG 22 2017

NOTE: "FAIR" INDICATES FEW OR NO CLOUDS BELOW 12,000 FEET WITH NO
SIGNIFICANT WEATHER AND/OR OBSTRUCTION TO VISIBILITY.

MIZ047>049-052>055-059>063-066>070-074>076-081>083-220700-
SOUTHEAST LOWER MICHIGAN

CITY           SKY/WX    TMP DP  RH WIND       PRES   REMARKS
ADRIAN         MOCLDY    73  70  90 SW7       29.95F
6HR MIN TEMP:  73; 6HR MAX TEMP:  80;

ALMA           CLOUDY    69  65  86 S8        29.87F
ANN ARBOR      CLOUDY    73  67  81 S7        29.93F
BAD AXE        CLOUDY    74  65  73 SW5       29.87F
CARO           PTCLDY    73  61  66 S5        29.87F
DETROIT CITY   CLOUDY    78  69  73 S8        29.91F
6HR MIN TEMP:  77; 6HR MAX TEMP:  82;

DETROIT        CLOUDY    75  70  84 S8        29.93F
6HR MIN TEMP:  75; 6HR MAX TEMP:  82;

FLINT          CLOUDY    73  64  73 SW6       29.89F
6HR MIN TEMP:  72; 6HR MAX TEMP:  81; 6HR PCP: TRACE;

GROSSE ILE     MOCLDY    75  72  88 S8        29.93F
6HR MIN TEMP:  75; 6HR MAX TEMP:  80;

HILLSDALE      MOCLDY    72  68  88 S6        29.96F
HOWELL         CLOUDY    71  66  84 S8        29.91F
6HR MIN TEMP:  70; 6HR MAX TEMP:  80; 6HR PCP:  0.02;


CITY           SKY/WX    TMP DP  RH WIND       PRES   REMARKS
JACKSON        MOCLDY    70  67  90 S9        29.93F
6HR MIN TEMP:  69; 6HR MAX TEMP:  82; 6HR PCP:  0.06;

LAMBERTVILLE   PTCLDY    73  69  86 SW5       29.95F
6HR MIN TEMP:  73; 6HR MAX TEMP:  82;

LANSING        CLOUDY    70  66  87 S8        29.91F
6HR MIN TEMP:  69; 6HR MAX TEMP:  81; 6HR PCP:  0.07;

LAPEER         FAIR      73  63  69 S3        29.88F
6HR MIN TEMP:  73; 6HR MAX TEMP:  79;

MASON          MOCLDY    70  66  88 SE5       29.92F
MONROE         MOCLDY    74  71  90 S3        29.93F
6HR MIN TEMP:  74; 6HR MAX TEMP:  82;

MT. CLEMENS    CLOUDY    77  69  74 S8        29.89F
6HR MIN TEMP:  75; 6HR MAX TEMP:  79;

PONTIAC        CLOUDY    72  67  84 S5        29.90F
6HR MIN TEMP:  72; 6HR MAX TEMP:  82; 6HR PCP: TRACE;

PORT HOPE        N/A     75  67  76 VRB5      29.84F
6HR MIN TEMP:  75; 6HR MAX TEMP:  78;

PORT HURON     CLOUDY    75  72  88 S3        29.90F
TRI CITIES     CLOUDY    73  66  78 S9        29.86F
6HR MIN TEMP:  73; 6HR MAX TEMP:  81;

MIDLAND        FAIR      72  64  77 S5        29.84F
6HR MIN TEMP:  72; 6HR MAX TEMP:  82;

TROY           PTCLDY    78  65  64 S3        29.93F
SAGINAW HB     CLOUDY    72  63  73 SW8       29.86F
$$
MIZ043>046-050>051-056>058-064>065-071>073-077>080-220700-
SOUTHWEST LOWER MICHIGAN

CITY           SKY/WX    TMP DP  RH WIND       PRES   REMARKS
BATTLE CREEK   CLOUDY    72  71  97 S10       29.92F
6HR MIN TEMP:  69; 6HR MAX TEMP:  80; 6HR PCP:  0.32;

BENTON HARBOR  CLOUDY    77  68  73 S10       29.89F
6HR MIN TEMP:  77; 6HR MAX TEMP:  82; 6HR PCP:  0.01;

BIG RAPIDS     PTCLDY    72  66  81 SW7       29.85F
6HR MIN TEMP:  71; 6HR MAX TEMP:  76;

COLDWATER      CLEAR     73  70  92 SW5       29.94F
6HR MIN TEMP:  73; 6HR MAX TEMP:  80;

FREMONT        FAIR      70  70 100 S6        29.84F
HOLLAND        MOCLDY    71  69  93 S6        29.87F
6HR MIN TEMP:  69; 6HR MAX TEMP:  77; 6HR PCP:  0.08;

GRAND RAPIDS   MOCLDY    71  69  93 S8        29.88F
6HR MIN TEMP:  69; 6HR MAX TEMP:  80; 6HR PCP:  0.01;

IONIA          FAIR      70  67  89 S9        29.88F
6HR MIN TEMP:  69; 6HR MAX TEMP:  80;

KALAMAZOO      CLOUDY    74  70  87 S14       29.91F
6HR MIN TEMP:  70; 6HR MAX TEMP:  81; 6HR PCP:  0.09;

LUDINGTON      CLOUDY    73  68  86 SW14G21   29.81F
6HR MIN TEMP:  71; 6HR MAX TEMP:  74;

MARSHALL       MOCLDY    70  69  99 S7        29.92F
6HR MIN TEMP:  68; 6HR MAX TEMP:  80; 6HR PCP:  0.20;

MOUNT PLEASANT CLOUDY    74  64  73 S6        29.84F
6HR MIN TEMP:  74; 6HR MAX TEMP:  83;

MUSKEGON       MOCLDY    76  71  85 S13       29.85F
6HR MIN TEMP:  75; 6HR MAX TEMP:  77;

SOUTH HAVEN    CLOUDY    75  71  89 S7        29.88F
$$
MIZ016>042-220700-
NORTHERN LOWER MICHIGAN

CITY           SKY/WX    TMP DP  RH WIND       PRES   REMARKS
ALPENA         CLEAR     72  69  90 SW3       29.81F
6HR MIN TEMP:  70; 6HR MAX TEMP:  78;

BEAVER ISLAND  CLOUDY    70  69  96 SW12      29.77F FOG
6HR MIN TEMP:  68; 6HR MAX TEMP:  73;

BELLAIRE       CLEAR     69  68  96 CALM      29.78F
6HR MIN TEMP:  65; 6HR MAX TEMP:  77;

CADILLAC       PTCLDY    72  68  88 S10       29.83F
CHARLEVOIX     PTCLDY    71  71 100 S8        29.80F
FRANKFORT      CLOUDY    74  72  91 S12       29.80R
GAYLORD        CLEAR     69  66  90 SW12      29.82F
6HR MIN TEMP:  69; 6HR MAX TEMP:  77; 6HR PCP:  0.08;

GRAYLING       CLEAR     70  66  89 CALM      29.83F
6HR MIN TEMP:  70; 6HR MAX TEMP:  78;

HARBOR SPRINGS CLOUDY    68  66  94 CALM      29.78F
HOUGHTON LAKE  PTCLDY    71  68  90 S8        29.84F
6HR MIN TEMP:  71; 6HR MAX TEMP:  77;

MANISTEE       MOCLDY    72  69  90 S7        29.81S
OSCODA         MOCLDY    74  69  87 SW7       29.82F
6HR MIN TEMP:  74; 6HR MAX TEMP:  80;

PELLSTON       CLOUDY    68  67  96 SE5       29.79F
6HR MIN TEMP:  66; 6HR MAX TEMP:  73; 6HR PCP:  0.86;

ROGERS CITY    CLEAR     68  67  94 CALM      29.80F
TRAVERSE CITY  PTCLDY    73  68  84 VRB6      29.77F
6HR MIN TEMP:  73; 6HR MAX TEMP:  81;

$$
MIZ007>008-015-220700-
EASTERN UPPER MICHIGAN

CITY           SKY/WX    TMP DP  RH WIND       PRES   REMARKS
KINROSS        CLOUDY    66  66 100 S5        29.77F
6HR MIN TEMP:  66; 6HR MAX TEMP:  74;

MACKINAC ISLAN CLOUDY    68  68 100 S5        29.77F
6HR MIN TEMP:  67; 6HR MAX TEMP:  72; 6HR PCP:  0.29;

NEWBERRY       CLOUDY    66  65  97 S5        29.75F
6HR MIN TEMP:  66; 6HR MAX TEMP:  70;

S. S. MARIE    CLOUDY    67  66  97 SE5       29.76F
6HR MIN TEMP:  67; 6HR MAX TEMP:  75; 6HR PCP:  0.24;

MUNISING         N/A     65  65 100 CALM      29.72F
6HR MIN TEMP:  63; 6HR MAX TEMP:  66; 6HR PCP:  0.29;

$$
MIZ004>006-011>014-085-220700-
CENTRAL UPPER MICHIGAN

CITY           SKY/WX    TMP DP  RH WIND       PRES   REMARKS
MANISTIQUE     CLOUDY    67  61  81 CALM      29.74F
6HR MIN TEMP:  66; 6HR MAX TEMP:  69;

ESCANABA       RAIN      69  68  96 SW10      29.74F
6HR MIN TEMP:  66; 6HR MAX TEMP:  70; 6HR PCP:  0.05;

MENOMINEE      CLOUDY    70  66  87 SW7       29.77F
6HR MIN TEMP:  70; 6HR MAX TEMP:  75; 6HR PCP: TRACE;

SAWYER-GWINN   CLOUDY    63  62  97 S5        29.75F
6HR MIN TEMP:  60; 6HR MAX TEMP:  64; 6HR PCP:  1.02;

$$
MIZ001>003-009>011-084-220700-
WESTERN UPPER MICHIGAN

CITY           SKY/WX    TMP DP  RH WIND       PRES   REMARKS
IRON MOUNTAIN  CLOUDY    67  64  90 S5        29.75F
6HR MIN TEMP:  67; 6HR MAX TEMP:  72; 6HR PCP: TRACE;

HOUGHTON       RAIN      58  56  93 N7        29.74F FOG
6HR MIN TEMP:  58; 6HR MAX TEMP:  63; 6HR PCP:  0.69;

COPPER HARBOR    N/A     59  57  93 N14       29.76S
6HR MIN TEMP:  59; 6HR MAX TEMP:  65; 6HR PCP:  0.30;

IRONWOOD       LGT RAIN  59  58  96 N9G18     29.80R
6HR MIN TEMP:  59; 6HR MAX TEMP:  69; 6HR PCP:  0.36;

$$

ABBREVIATIONS USED IN REMARKS
   TC - TEMPERATURE IN CELSIUS
  WCI - WIND CHILL INDEX
   HX - HEAT INDEX
  VSB - VISIBILITY





USA.gov is the U.S. government's official web portal to all federal, state and local government web resources and services.